Weather History for MRLB - January, 2014

Change the Weather History Date:

Wednesday, January 1, 2014

  Actual Average Record
Temperature  
Mean Temperature 82 °F -  
Max Temperature 93 °F 88 °F 95 °F (2003)
Min Temperature 71 °F 73 °F 66 °F (2009)
Cooling Degree Days 17    
Growing Degree Days 32 (Base 50)    
Moisture  
Dew Point 67 °F    
Average Humidity 52    
Maximum Humidity 83    
Minimum Humidity 32    
Precipitation  
Precipitation 0.00 in - - ()
Sea Level Pressure  
Sea Level Pressure 29.81 in    
Wind  
Wind Speed 11 mph ()    
Max Wind Speed 20 mph    
Max Gust Speed 30 mph    
Visibility 7.7 miles    
Events      
Averages and records for this station are not official NWS values.
T = Trace of Precipitation, MM = Missing Value Source: Averaged Metar Reports

Daily Weather History Graph

Daily Weather History Graph

Search for Another Location

Airport or City:

Trip Planner

Search our weather history database for the weather conditions in past years. The results will help you decide how hot, cold, wet, or windy it might be!

Date:

Astronomy

Jan. 01, 2014 Rise Set
Actual Time 6:00 AM CST 5:31 PM CST
Civil Twilight 5:37 AM CST 5:54 PM CST
Nautical Twilight 5:11 AM CST 6:20 PM CST
Astronomical Twilight 4:44 AM CST 6:46 PM CST
Moon 6:01 AM CST (1/1) 6:01 PM CST (1/1)
Length of Visible Light 12h 16m
Length of Day
11h 31m
New Moon, 0% of the Moon is Illuminated
Jan 1
New Moon
Jan 7
First Quarter
Jan 15
Full
Jan 23
Last Quarter
Jan 30
New

Hourly Weather History & Observations

Time (CST) Temp. Heat Index Dew Point Humidity Pressure Visibility Wind Dir Wind Speed Gust Speed Precip Events Conditions
6:00 AM 74 °F - 68 °F 76% 29.86 in 12 mi ESE 5.8 mph - -   Scattered Clouds
6:00 AM 73.4 °F - 68.0 °F 83% 29.83 in 6.2 mi ESE 5.8 mph - N/A   Partly Cloudy
7:00 AM 78.8 °F - 68.0 °F 69% 29.84 in 6.2 mi East 8.1 mph - N/A   Partly Cloudy
8:00 AM 84.2 °F 87.3 °F 68.0 °F 58% 29.86 in 6.2 mi East 11.5 mph - N/A   Partly Cloudy
9:00 AM 87 °F - 67 °F 43% 29.89 in 12 mi ENE 18.4 mph - -   Scattered Clouds
9:00 AM 87.8 °F 91.4 °F 68.0 °F 52% 29.86 in 6.2 mi ENE 18.4 mph - N/A   Partly Cloudy
10:00 AM 89.6 °F 92.2 °F 66.2 °F 46% 29.85 in 6.2 mi ENE 18.4 mph 29.9 mph N/A   Partly Cloudy
11:00 AM 89.6 °F 92.2 °F 66.2 °F 46% 29.83 in 6.2 mi ENE 19.6 mph - N/A   Scattered Clouds
12:00 PM 92 °F - 66 °F 32% 29.83 in 12 mi ENE 19.6 mph - -   Scattered Clouds
12:00 PM 91.4 °F 94.0 °F 66.2 °F 43% 29.81 in 6.2 mi ENE 19.6 mph - N/A   Partly Cloudy
1:00 PM 93.2 °F 96.2 °F 66.2 °F 41% 29.77 in 6.2 mi ENE 16.1 mph - N/A   Scattered Clouds
2:00 PM 91.4 °F 94.0 °F 66.2 °F 43% 29.75 in 6.2 mi East 16.1 mph - N/A   Scattered Clouds
3:00 PM 90 °F - 67 °F 36%  in 12 mi East 17.3 mph - -  
3:00 PM 91.4 °F 94.0 °F 66.2 °F 43% 29.74 in 6.2 mi East 17.3 mph - N/A   Partly Cloudy
4:00 PM 89.6 °F 93.4 °F 68.0 °F 49% 29.75 in 6.2 mi ENE 16.1 mph - N/A   Scattered Clouds
5:00 PM 86.0 °F 88.2 °F 66.2 °F 51% 29.77 in 6.2 mi ESE 12.7 mph - N/A   Scattered Clouds
6:00 PM 82 °F - 65 °F 48% 29.76 in 12 mi East 10.4 mph - -   Clear
6:00 PM 82.4 °F 85.4 °F 68.0 °F 62% 29.78 in 6.2 mi East 8.1 mph - N/A   Scattered Clouds
7:00 PM 80.6 °F 83.2 °F 68.0 °F 65% 29.79 in 6.2 mi East 10.4 mph - N/A   Scattered Clouds
8:00 PM 80.6 °F 82.7 °F 66.2 °F 61% 29.82 in 6.2 mi East 11.5 mph - N/A   Partly Cloudy